[[{"header":{"parameterUnit":"m.s-1","parameterCategory":1,"la1":30.2991,"la2":30.254,"lo1":-89.0895,"lo2":-89.0444,"dy":0.0017,"dx":0.0017,"nx":28,"ny":28,"refTime":"2024-04-02T03:00:00:Z","depth":0,"parameterNumber":2,"parameterNumberName":"U-component_of_WINDS"},"data":[0,0,0,0,0,0,0,0,0,0,0,0,0,0,0,0,0,0,0,0,0,0,0,0,0,0,0,0,0,0,0,0,0,0,0,0,0,0,0,0,0,0,0,0,0,0,0,0,0,0,0,0,0,0,0,0,0,0,-3.2676,-3.2677,0,-3.2757,-3.2758,-3.2759,-3.2758,-3.2757,-3.2756,-3.2755,-3.2836,-3.2839,-3.2842,0,0,0,0,0,0,0,0,0,0,0,0,0,-3.2517,-3.252,-3.2676,-3.2677,-3.2678,-3.2757,-3.2758,-3.2759,-3.2758,-3.2757,-3.2755,-3.2754,-3.2835,-3.2838,-3.2842,0,0,0,0,0,0,0,0,0,0,0,0,0,-3.2591,-3.2521,-3.2675,-3.2687,-3.2689,-3.2757,-3.2758,-3.2759,-3.2758,-3.2757,-3.2755,-3.2754,-3.2833,-3.2838,-3.2843,-3.2904,0,0,-3.2857,-3.2859,0,0,0,0,0,0,0,0,-3.2587,-3.2597,-3.2684,-3.2686,-3.2688,-3.2746,-3.2732,-3.2808,-3.2759,-3.2732,-3.2755,-3.2753,-3.2807,-3.2814,-3.2832,-3.2908,-3.2911,-3.2858,-3.286,-3.2862,-3.2864,0,0,0,0,0,0,0,-3.2581,-3.2593,-3.2708,-3.2685,-3.2688,-3.2687,-3.2696,-3.2746,-3.2777,-3.2734,-3.2734,-3.2744,-3.2808,-3.2828,-3.2834,-3.2913,-3.2857,-3.2862,-3.2865,-3.2866,-3.3041,-3.3043,0,0,0,0,0,0,-3.2574,-3.2589,-3.2705,-3.271,-3.2632,-3.2691,-3.2701,-3.2729,-3.2777,-3.2783,-3.2745,-3.2744,-3.2821,-3.2829,-3.2837,-3.291,-3.2862,-3.2867,-3.287,-3.3039,-3.3041,-3.3043,0,0,0,0,0,0,-3.2571,-3.2585,-3.2702,-3.265,-3.2664,-3.2696,-3.2727,-3.2731,-3.2751,-3.2785,-3.2791,-3.276,-3.282,-3.283,-3.2887,-3.2913,-3.2869,-3.2873,-3.3037,-3.304,-3.3042,-3.3059,0,0,0,0,0,0,-3.2566,-3.2584,-3.2608,-3.265,-3.2667,-3.2751,-3.2729,-3.2734,-3.276,-3.2758,-3.2801,-3.2806,-3.2819,-3.288,-3.2892,-3.2919,-3.2877,-3.3035,-3.3038,-3.3041,-3.3056,-3.3062,-3.3066,0,0,0,0,0,-3.2561,-3.2609,-3.2609,-3.2623,-3.2698,-3.2753,-3.2762,-3.2777,-3.2762,-3.2786,-3.2808,-3.2805,-3.2909,-3.2886,-3.2899,-3.2928,-3.3033,-3.3037,-3.3041,-3.3053,-3.306,-3.3066,0,0,0,0,0,0,-3.2568,-3.2615,-3.2615,-3.2679,-3.2712,-3.2753,-3.2783,-3.2784,-3.2822,-3.2819,-3.2835,-3.2845,-3.2901,-3.2921,-3.2894,-3.2989,-3.2969,-3.2976,-3.2974,-3.2981,-3.2986,-3.2979,-3.2881,0,0,0,0,0,-3.2577,-3.2618,-3.2657,-3.2709,-3.2726,-3.2752,-3.2776,-3.2785,-3.2819,-3.2833,-3.2859,-3.2892,-3.2932,-3.2958,-3.2997,-3.306,-3.3068,-3.3086,-3.3091,-3.3095,-3.31,-3.3133,-3.3141,-3.3056,-3.3056,-3.3056,0,0,-3.2596,-3.2627,-3.2652,-3.2711,-3.2738,-3.2779,-3.2763,-3.2808,-3.2838,-3.284,-3.2894,-3.2915,-3.2953,-3.3012,-3.304,-3.303,-3.3126,-3.3101,-3.3104,-3.3106,-3.3138,-3.3146,-3.3153,-3.3059,-3.3059,-3.3058,0,0,-3.2651,-3.268,-3.2725,-3.2752,-3.2793,-3.281,-3.2821,-3.2862,-3.2875,-3.2931,-3.2933,-3.2969,-3.3038,-3.3064,-3.3087,-3.3152,-3.315,-3.3165,-3.3191,-3.3223,-3.3229,-3.3235,-3.3256,-3.3264,-3.317,-3.317,-3.317,0,-3.2669,-3.2732,-3.2748,-3.2793,-3.2818,-3.2823,-3.2868,-3.2894,-3.2945,-3.2962,-3.2951,-3.3038,-3.3064,-3.3128,-3.3144,-3.3163,-3.3175,-3.3158,-3.3227,-3.3233,-3.3239,-3.3259,-3.3267,-3.3171,-3.3171,-3.3171,-3.3171,0,-3.2751,-3.2794,-3.2826,-3.2876,-3.2905,-3.295,-3.2972,-3.3,-3.3007,-3.3024,-3.308,-3.3112,-3.3156,-3.3173,-3.318,-3.3239,-3.3231,-3.3224,-3.3203,-3.3248,-3.3267,-3.3275,-3.3173,-3.3173,-3.3172,-3.3172,0,0,-3.2811,-3.2869,-3.288,-3.2902,-3.2948,-3.2981,-3.3026,-3.307,-3.3093,-3.3129,-3.3165,-3.3224,-3.3217,-3.3243,-3.3253,-3.3281,-3.3328,-3.327,-3.3271,-3.3277,-3.3392,-3.3395,-3.3404,-3.3328,-3.333,-3.3331,-3.3388,0,-3.2869,-3.2948,-3.2965,-3.3033,-3.3072,-3.3077,-3.3116,-3.3148,-3.3166,-3.3201,-3.3221,-3.3262,-3.3251,-3.3266,-3.3295,-3.3316,-3.335,-3.3313,-3.336,-3.3362,-3.3348,-3.3415,-3.3418,-3.3471,-3.3396,-3.3397,-3.3398,0,-3.2946,-3.2984,-3.3056,-3.3095,-3.3112,-3.3147,-3.3188,-3.3223,-3.3258,-3.3269,-3.3298,-3.3305,-3.335,-3.333,-3.3392,-3.3365,-3.3386,-3.34,-3.3402,-3.3405,-3.3381,-3.3417,-3.3488,-3.3495,-3.3411,-3.341,-3.3409,0,-3.298,-3.3048,-3.31,-3.3119,-3.3167,-3.3191,-3.3212,-3.3246,-3.3271,-3.3307,-3.3324,-3.3365,-3.3387,-3.3418,-3.3435,-3.3419,-3.3495,-3.3476,-3.3504,-3.3503,-3.3517,-3.3516,-3.359,-3.3535,-3.3535,-3.3535,-3.3535,0,-3.3041,-3.3084,-3.3115,-3.3147,-3.3196,-3.3214,-3.3261,-3.3282,-3.3313,-3.3347,-3.3355,-3.3387,-3.3409,-3.3445,-3.3459,-3.3507,-3.3517,-3.3526,-3.3529,-3.3524,-3.3522,-3.3536,-3.3532,-3.3537,-3.3537,-3.3536,-3.3536,0,-3.3085,-3.3108,-3.3164,-3.3205,-3.3217,-3.325,-3.3285,-3.3315,-3.3334,-3.3378,-3.3389,-3.3418,-3.346,-3.3481,-3.3533,-3.3543,-3.3596,-3.3598,-3.3584,-3.3584,-3.361,-3.3606,-3.3693,-3.3705,-3.3644,-3.3645,-3.3645,0,-3.3121,-3.3155,-3.3199,-3.3224,-3.3245,-3.3284,-3.331,-3.333,-3.3356,-3.3399,-3.3424,-3.3466,-3.3501,-3.3567,-3.3592,-3.3632,-3.3633,-3.3661,-3.3639,-3.3633,-3.3631,-3.3627,-3.363,-3.3664,-3.3665,-3.3665,-3.3666,0,-3.3182,-3.3192,-3.3229,-3.327,-3.3301,-3.3334,-3.3367,-3.3386,-3.3411,-3.344,-3.3484,-3.3511,-3.3564,-3.3605,-3.3647,-3.3667,-3.367,-3.3673,-3.3681,-3.3675,-3.3664,-3.3668,-3.3592,-3.367,-3.367,-3.3669,-3.3669,-3.3669,-3.3222,-3.3252,-3.3287,-3.3328,-3.3355,-3.3385,-3.3415,-3.3438,-3.3474,-3.3519,-3.3529,-3.3574,-3.3608,-3.3664,-3.3687,-3.3721,-3.3715,-3.3727,-3.373,-3.3732,-3.3732,-3.3661,-3.3729,-3.3729,-3.3729,-3.3729,-3.3729,0,-3.3282,-3.3305,-3.3342,-3.3388,-3.342,-3.3421,-3.3457,-3.3484,-3.3523,-3.3555,-3.359,-3.3638,-3.3679,-3.3707,-3.3748,-3.377,-3.3772,-3.378,-3.3777,-3.3781,-3.3736,-3.3724,-3.3777,-3.3777,-3.3777,-3.3777,-3.3777,-3.3777,-3.3316,-3.3365,-3.3379,-3.3441,-3.3464,-3.3509,-3.3529,-3.3556,-3.3582,-3.3636,-3.367,-3.3689,-3.3719,-3.3762,-3.3798,-3.3806,-3.3819,-3.3826,-3.3833,-3.379,-3.3785,-3.378,-3.3768,-3.383,-3.383,-3.3875,-3.3875,-3.3875]},{"header":{"parameterUnit":"m.s-1","parameterCategory":1,"la1":30.2991,"la2":30.254,"lo1":-89.0895,"lo2":-89.0444,"dy":0.0017,"dx":0.0017,"nx":28,"ny":28,"refTime":"2024-04-02T03:00:00:Z","depth":0,"parameterNumber":3,"parameterNumberName":"V-component_of_WINDS"},"data":[0,0,0,0,0,0,0,0,0,0,0,0,0,0,0,0,0,0,0,0,0,0,0,0,0,0,0,0,0,0,0,0,0,0,0,0,0,0,0,0,0,0,0,0,0,0,0,0,0,0,0,0,0,0,0,0,0,0,4.2878,4.2878,0,4.2934,4.2935,4.2935,4.2961,4.2961,4.2961,4.2961,4.3015,4.3016,4.3018,0,0,0,0,0,0,0,0,0,0,0,0,0,4.2791,4.2792,4.2878,4.2878,4.2879,4.2934,4.2935,4.2935,4.2961,4.2961,4.2961,4.2961,4.3015,4.3016,4.3018,0,0,0,0,0,0,0,0,0,0,0,0,0,4.2836,4.2792,4.2877,4.2898,4.2901,4.2934,4.2935,4.2936,4.2961,4.2961,4.2961,4.2961,4.3014,4.3016,4.3018,4.3033,0,0,4.3025,4.3026,0,0,0,0,0,0,0,0,4.2833,4.2839,4.2895,4.2897,4.29,4.2941,4.2924,4.2968,4.2961,4.2938,4.2961,4.2961,4.299,4.2994,4.3005,4.3036,4.3038,4.3025,4.3027,4.3028,4.3028,0,0,0,0,0,0,0,4.283,4.2836,4.29,4.2895,4.2899,4.2905,4.2911,4.2932,4.2964,4.294,4.2942,4.2949,4.2991,4.3003,4.3006,4.3039,4.3025,4.3027,4.3029,4.3029,4.3089,4.3089,0,0,0,0,0,0,4.2824,4.2834,4.2898,4.2902,4.2866,4.2906,4.2913,4.2927,4.2963,4.2969,4.2949,4.295,4.2999,4.3004,4.3008,4.3031,4.3028,4.303,4.3031,4.3088,4.3089,4.3089,0,0,0,0,0,0,4.2822,4.2829,4.2896,4.2868,4.2877,4.2908,4.2923,4.2929,4.294,4.297,4.2975,4.2954,4.2999,4.3005,4.3028,4.3033,4.3031,4.3033,4.3088,4.3088,4.3089,4.3074,0,0,0,0,0,0,4.2819,4.2828,4.2834,4.2868,4.2879,4.2915,4.2924,4.293,4.2944,4.2946,4.2977,4.2982,4.2999,4.3025,4.303,4.3036,4.3034,4.3088,4.3088,4.3089,4.3074,4.3073,4.3073,0,0,0,0,0,4.2816,4.2826,4.2835,4.2842,4.2887,4.2915,4.2921,4.2942,4.2944,4.2951,4.2971,4.2981,4.3031,4.3027,4.3033,4.3039,4.3087,4.3088,4.3089,4.3074,4.3074,4.3073,0,0,0,0,0,0,4.279,4.2831,4.2841,4.2863,4.2885,4.2919,4.2928,4.294,4.2961,4.2962,4.2986,4.2993,4.3014,4.3029,4.3023,4.3058,4.306,4.3062,4.3047,4.3047,4.3046,4.3043,4.3036,0,0,0,0,0,4.2788,4.2808,4.2842,4.2858,4.2869,4.2897,4.2909,4.2924,4.2948,4.2957,4.2979,4.3001,4.3022,4.3035,4.3056,4.3076,4.3084,4.3084,4.3084,4.3083,4.3085,4.3099,4.31,4.3091,4.3091,4.3091,0,0,4.2781,4.2806,4.2817,4.2854,4.2873,4.2893,4.2904,4.2924,4.294,4.296,4.2984,4.3,4.3027,4.3049,4.306,4.3062,4.3089,4.3084,4.3083,4.3085,4.31,4.31,4.3101,4.3091,4.3091,4.3091,0,0,4.2781,4.2801,4.2818,4.2838,4.2868,4.2887,4.2891,4.2924,4.2937,4.2961,4.2978,4.2996,4.3031,4.305,4.3064,4.3074,4.3085,4.308,4.3078,4.3092,4.3093,4.3094,4.3099,4.31,4.3082,4.3082,4.3082,0,4.2769,4.2801,4.2825,4.2845,4.2862,4.2883,4.2901,4.2919,4.2953,4.2964,4.2966,4.3013,4.3032,4.3061,4.3064,4.3074,4.308,4.3077,4.3091,4.3092,4.3093,4.3099,4.31,4.3081,4.3081,4.3081,4.3081,0,4.2786,4.2808,4.2818,4.2854,4.2871,4.2889,4.2917,4.2931,4.2945,4.2964,4.299,4.3014,4.3041,4.3049,4.3061,4.308,4.3081,4.3086,4.309,4.3093,4.3099,4.3101,4.308,4.308,4.308,4.3081,0,0,4.2769,4.282,4.2823,4.2841,4.2877,4.2895,4.2915,4.2944,4.2957,4.298,4.2999,4.303,4.3037,4.3053,4.3068,4.308,4.3089,4.3085,4.3086,4.3086,4.3114,4.311,4.3112,4.3097,4.3097,4.3098,4.3112,0,4.2774,4.2813,4.2837,4.2866,4.2888,4.291,4.2928,4.2953,4.2971,4.2992,4.3012,4.3034,4.3041,4.3051,4.3064,4.3085,4.3095,4.3084,4.3114,4.3115,4.3108,4.3114,4.3109,4.3122,4.3114,4.3114,4.3115,0,4.2785,4.2811,4.2844,4.2881,4.289,4.2906,4.2936,4.2956,4.2984,4.2997,4.3017,4.3033,4.3056,4.3058,4.309,4.3083,4.3097,4.3109,4.311,4.3114,4.3116,4.312,4.3126,4.3128,4.3118,4.3118,4.3117,0,4.2772,4.2815,4.2841,4.2855,4.2898,4.2909,4.2927,4.2956,4.2973,4.2998,4.301,4.3037,4.3052,4.3073,4.3096,4.3095,4.3127,4.313,4.3139,4.3139,4.3145,4.3144,4.3155,4.3152,4.3152,4.3152,4.3152,0,4.2776,4.2795,4.2836,4.2851,4.2874,4.2902,4.2923,4.2943,4.2969,4.2989,4.3009,4.3028,4.3057,4.3079,4.3097,4.3123,4.3128,4.314,4.3145,4.3139,4.3138,4.3148,4.3149,4.3152,4.3152,4.3152,4.3152,0,4.2764,4.2792,4.2822,4.2862,4.2872,4.2887,4.2921,4.2938,4.2958,4.2984,4.2991,4.3023,4.3051,4.3076,4.3112,4.3124,4.3151,4.3156,4.3142,4.3144,4.3153,4.3152,4.3171,4.3176,4.3168,4.3168,4.3168,0,4.2765,4.2781,4.2823,4.284,4.2858,4.2883,4.2902,4.2929,4.2948,4.2983,4.2996,4.3025,4.305,4.3093,4.3119,4.3147,4.3154,4.3159,4.3159,4.3153,4.3156,4.3156,4.3158,4.3159,4.3159,4.3159,4.3159,0,4.2764,4.2779,4.2805,4.2837,4.2859,4.2885,4.2911,4.2923,4.2956,4.2975,4.3005,4.3025,4.3063,4.3093,4.3125,4.3143,4.3157,4.3159,4.3163,4.3157,4.3149,4.3156,4.3142,4.3158,4.3158,4.3158,4.3158,4.3158,4.276,4.2777,4.281,4.284,4.2863,4.2888,4.2907,4.2931,4.2957,4.2992,4.3007,4.3037,4.3068,4.3112,4.3131,4.3155,4.3158,4.3163,4.3164,4.3166,4.3165,4.3145,4.3161,4.3161,4.3161,4.3161,4.3161,0,4.2762,4.2786,4.2813,4.2851,4.2875,4.2888,4.2918,4.2937,4.2964,4.2992,4.3018,4.3053,4.3083,4.3112,4.3144,4.3157,4.3165,4.3165,4.3164,4.3169,4.316,4.3155,4.3159,4.3159,4.3159,4.3159,4.3159,4.3159,4.2766,4.2795,4.2814,4.2856,4.2879,4.2911,4.2927,4.2951,4.2974,4.3014,4.3039,4.3059,4.3088,4.3122,4.315,4.3158,4.3169,4.3168,4.3178,4.3169,4.3169,4.3169,4.3164,4.317,4.317,4.3185,4.3185,4.3185]}]]